Mitchell, SD

9:19 PM CDT on March 23, 2017 (GMT -0500)
Mitchell Municipal

Weather History for KMHE - May, 2013

Change the Weather History Date:

Saturday, May 25, 2013

  Actual Average Record
Temperature  
Mean Temperature 69 °F 62 °F  
Max Temperature 81 °F 73 °F 104 °F (1967)
Min Temperature 56 °F 51 °F 30 °F (1901)
Degree Days  
Heating Degree Days 0 4  
Month to date heating degree days 227 187  
Since 1 July heating degree days 7591 7187  
Cooling Degree Days 4 2  
Month to date cooling degree days 46 24  
Year to date cooling degree days 46 26  
Growing Degree Days 18 (Base 50)    
Moisture  
Dew Point 54 °F    
Average Humidity 61    
Maximum Humidity 77    
Minimum Humidity 45    
Precipitation  
Precipitation 0.20 in 0.12 in 2.30 in (1909)
Month to date precipitation 3.85 2.04  
Year to date precipitation 8.88 5.84  
Snow  
Snow 0.00 in - 0.00 in ()
Month to date snowfall 0.0  
Since 1 July snowfall 54.5  
Snow Depth 0.00 in    
Sea Level Pressure  
Sea Level Pressure 29.98 in    
Wind  
Wind Speed 17 mph (SE)    
Max Wind Speed 28 mph    
Max Gust Speed 36 mph    
Visibility 10 miles    
Events Rain , Thunderstorm    
T = Trace of Precipitation, MM = Missing Value Source: NWS Daily Summary

Daily Weather History Graph

Daily Weather History Graph

Search for Another Location

Airport or City:

Trip Planner

Search our weather history database for the weather conditions in past years. The results will help you decide how hot, cold, wet, or windy it might be!

Date:

Astronomy

May. 25, 2013 Rise Set
Actual Time 5:57 AM CDT 9:01 PM CDT
Civil Twilight 5:22 AM CDT 9:35 PM CDT
Nautical Twilight 4:38 AM CDT 10:20 PM CDT
Astronomical Twilight 3:46 AM CDT 11:13 PM CDT
Moon 9:50 PM CDT (5/25) 6:26 AM CDT (5/25)
Length of Visible Light 16h 13m
Length of Day
15h 04m
Full, 100% of the Moon is Illuminated
May 25
Full
May 31
Last Quarter
Jun 8
New
Jun 16
First Quarter
Jun 23
Full

Hourly Weather History & Observations

Time (CDT) Temp. Heat Index Dew Point Humidity Pressure Visibility Wind Dir Wind Speed Gust Speed Precip Events Conditions
12:53 AM 63.0 °F - 50.0 °F 63% 29.99 in 10.0 mi SE 12.7 mph - N/A   Mostly Cloudy
1:53 AM 63.0 °F - 50.0 °F 63% 29.98 in 10.0 mi SE 13.8 mph - N/A   Overcast
2:53 AM 61.0 °F - 48.9 °F 64% 29.97 in 10.0 mi SE 12.7 mph - N/A   Clear
3:53 AM 62.1 °F - 48.9 °F 62% 29.98 in 10.0 mi SSE 12.7 mph - N/A   Mostly Cloudy
4:53 AM 61.0 °F - 48.9 °F 64% 29.99 in 10.0 mi SE 11.5 mph - N/A   Clear
5:53 AM 57.9 °F - 48.9 °F 72% 29.96 in 10.0 mi ESE 6.9 mph - N/A   Clear
6:53 AM 57.0 °F - 50.0 °F 77% 29.97 in 10.0 mi East 8.1 mph - N/A   Clear
7:53 AM 60.1 °F - 50.0 °F 69% 29.99 in 10.0 mi ESE 9.2 mph - N/A   Clear
8:53 AM 63.0 °F - 51.1 °F 65% 30.00 in 10.0 mi SE 16.1 mph - N/A   Partly Cloudy
9:53 AM 66.9 °F - 53.1 °F 61% 30.01 in 10.0 mi SE 13.8 mph - N/A   Clear
10:53 AM 70.0 °F - 55.0 °F 59% 30.01 in 10.0 mi SSE 13.8 mph - N/A   Clear
11:53 AM 73.9 °F - 57.0 °F 55% 30.00 in 10.0 mi SE 13.8 mph - N/A   Clear
12:53 PM 75.9 °F - 57.0 °F 52% 29.99 in 10.0 mi ESE 15.0 mph 20.7 mph N/A   Clear
1:53 PM 79.0 °F - 57.9 °F 48% 29.97 in 10.0 mi SE 20.7 mph 27.6 mph N/A   Clear
2:53 PM 79.0 °F - 57.0 °F 47% 29.96 in 10.0 mi ESE 16.1 mph 24.2 mph N/A   Clear
3:53 PM 80.1 °F 80.6 °F 57.9 °F 47% 29.94 in 10.0 mi SE 21.9 mph - N/A   Clear
4:53 PM 80.1 °F 80.4 °F 57.0 °F 45% 29.94 in 10.0 mi SE 23.0 mph 29.9 mph N/A   Clear
5:53 PM 77.0 °F - 57.0 °F 50% 29.94 in 10.0 mi SE 23.0 mph 33.4 mph N/A   Clear
6:53 PM 73.9 °F - 55.9 °F 53% 29.94 in 10.0 mi SE 19.6 mph 27.6 mph N/A   Clear
7:53 PM 71.1 °F - 55.9 °F 59% 29.95 in 10.0 mi SE 21.9 mph 28.8 mph N/A   Clear
8:53 PM 66.0 °F - 55.9 °F 70% 29.96 in 10.0 mi ESE 18.4 mph - N/A   Clear
9:53 PM 62.1 °F - 54.0 °F 75% 29.99 in 10.0 mi ESE 21.9 mph 29.9 mph N/A   Overcast
10:16 PM 62.6 °F - 53.6 °F 72% 30.00 in 10.0 mi ESE 23.0 mph 35.7 mph N/A Thunderstorm Unknown
10:31 PM 60.8 °F - 55.4 °F 82% 29.99 in 9.0 mi ESE 26.5 mph 32.2 mph N/A Rain Light Rain
10:40 PM 59.0 °F - 55.4 °F 88% 29.99 in 10.0 mi ESE 21.9 mph 28.8 mph N/A Rain , Thunderstorm Light Rain
10:48 PM 59.0 °F - 55.4 °F 88% 29.99 in 10.0 mi SE 23.0 mph 29.9 mph N/A Thunderstorm Thunderstorm
10:53 PM 59.0 °F - 55.0 °F 87% 29.99 in 8.0 mi ESE 20.7 mph 29.9 mph N/A Rain , Thunderstorm Light Thunderstorms and Rain
11:17 PM 57.2 °F - 55.4 °F 94% 29.98 in 7.0 mi ESE 18.4 mph 27.6 mph 0.17 in Rain , Thunderstorm Light Thunderstorms and Rain
11:43 PM 57.2 °F - 53.6 °F 88% 29.98 in 8.0 mi ESE 21.9 mph 33.4 mph 0.18 in Thunderstorm Overcast
11:53 PM 55.9 °F - 54.0 °F 93% 29.97 in 9.0 mi ESE 21.9 mph 31.1 mph 0.18 in Thunderstorm Overcast